Find Kosmos-2139

NORAD ID: 21216 Int'l Des: 1991-025 Owner: UNKSR Country: SU Constellation: GLONASS operational
MEOCIRCULAR

实时位置

正在加载3D地球...

关于 Kosmos-2139

正在加载描述...

即将过境

Passes for default location (London). Set your location on the main map for personalized predictions.

高度历史

Loading altitude history...

两行轨道根数

1 21216U 91025A 26105.07374794 .00000006 00000-0 00000+0 0 9999
2 21216 64.4044 306.6206 0015287 221.7579 138.1629 2.13105876272582
Epoch: Apr 15, 2026 • Age: 30 hours

当前状态

高度 19113.9 km
速度 3.96 km/s
星下点 -54.72°S, 154.6°W
发射日期 Apr 4, 1991
运行时间 35 years
类型 other

技术详情

分类 Payload
质量 1300.00 kg
干质量 1200.00 kg
总质量 1300.00 kg
长度 4.00 m
直径 1.50 m
跨度 7.80 m
形状 Cyl + Ant + 2 Pan
制造商 POL
平台类型 Uragan
阶段状态 In Orbit
所有者/国家 UNKSR/SU

Most Searched